• In Deutschland
  • Länderverzeichnis
  • Für 7 Tage
  • Wassertemperatur
  • Satellitenkarten
  • Wetterkarte
  • Widgets
  • user-avatar
    Anmelden

    Stündliche Wetter Baranovitschi

    Heute, 22 September, Freitag

    Zeit Temperatur Niederschläge Wind Luftdruck Luftfeuchtigkeit
    00:00 +14°C° 0,5 mm 3 m/S 743 mmHg 91%
    01:00 +14°C° 0,5 mm 3 m/S 743 mmHg 91%
    02:00 +14°C° 0 mm 3 m/S 743 mmHg 93%
    03:00 +14°C° 0 mm 3 m/S 743 mmHg 93%
    04:00 +13°C° 0 mm 3 m/S 743 mmHg 93%
    05:00 +13°C° 0 mm 3 m/S 744 mmHg 94%
    06:00 +13°C° 0,1 mm 3 m/S 744 mmHg 92%
    07:00 +14°C° 0,1 mm 4 m/S 744 mmHg 90%
    08:00 +14°C° 0 mm 4 m/S 745 mmHg 89%
    09:00 +15°C° 0,1 mm 4 m/S 745 mmHg 85%
    10:00 +17°C° 0,1 mm 4 m/S 745 mmHg 82%
    11:00 +19°C° 0,1 mm 4 m/S 746 mmHg 78%
    12:00 +20°C° 0 mm 4 m/S 746 mmHg 75%
    13:00 +21°C° 0 mm 4 m/S 746 mmHg 72%
    14:00 +22°C° 0 mm 4 m/S 746 mmHg 69%
    15:00 +22°C° 0 mm 4 m/S 746 mmHg 70%
    16:00 +21°C° 0 mm 4 m/S 746 mmHg 72%
    17:00 +21°C° 0 mm 4 m/S 746 mmHg 74%
    18:00 +20°C° 0 mm 4 m/S 746 mmHg 75%
    19:00 +19°C° 0 mm 5 m/S 746 mmHg 76%
    20:00 +17°C° 0 mm 5 m/S 746 mmHg 76%
    21:00 +16°C° 0 mm 5 m/S 746 mmHg 76%
    22:00 +16°C° 0 mm 5 m/S 746 mmHg 76%
    23:00 +15°C° 0 mm 6 m/S 747 mmHg 76%

    Morgen, 23 September, Samstag

    Zeit Temperatur Niederschläge Wind Luftdruck Luftfeuchtigkeit
    00:00 +15°C° 0 mm 6 m/S 747 mmHg 76%
    01:00 +15°C° 0 mm 6 m/S 747 mmHg 76%
    02:00 +14°C° 0 mm 6 m/S 747 mmHg 76%
    03:00 +14°C° 0 mm 6 m/S 747 mmHg 76%
    04:00 +13°C° 0 mm 6 m/S 747 mmHg 75%
    05:00 +13°C° 0 mm 6 m/S 747 mmHg 75%
    06:00 +13°C° 0 mm 6 m/S 747 mmHg 74%
    07:00 +13°C° 0 mm 6 m/S 748 mmHg 73%
    08:00 +13°C° 0 mm 6 m/S 748 mmHg 73%
    09:00 +14°C° 0 mm 7 m/S 748 mmHg 70%
    10:00 +15°C° 0 mm 7 m/S 748 mmHg 68%
    11:00 +16°C° 0 mm 7 m/S 749 mmHg 65%
    12:00 +17°C° 0 mm 7 m/S 749 mmHg 65%
    13:00 +17°C° 0 mm 6 m/S 749 mmHg 64%
    14:00 +19°C° 0 mm 6 m/S 749 mmHg 64%
    15:00 +17°C° 0 mm 5 m/S 750 mmHg 66%
    16:00 +17°C° 0 mm 5 m/S 750 mmHg 68%
    17:00 +18°C° 0 mm 4 m/S 750 mmHg 70%
    18:00 +17°C° 0 mm 4 m/S 750 mmHg 70%
    19:00 +15°C° 0 mm 4 m/S 751 mmHg 71%
    20:00 +14°C° 0 mm 5 m/S 751 mmHg 71%
    21:00 +14°C° 0 mm 4 m/S 751 mmHg 71%
    22:00 +13°C° 0 mm 4 m/S 751 mmHg 72%
    23:00 +13°C° 0 mm 4 m/S 752 mmHg 73%

    übermorgen, 24 September, Sonntag

    Zeit Temperatur Niederschläge Wind Luftdruck Luftfeuchtigkeit
    00:00 +13°C° 0 mm 4 m/S 752 mmHg 75%
    01:00 +12°C° 0 mm 4 m/S 752 mmHg 77%
    02:00 +12°C° 0 mm 4 m/S 752 mmHg 79%
    03:00 +12°C° 0 mm 4 m/S 752 mmHg 80%
    04:00 +12°C° 0 mm 4 m/S 752 mmHg 81%
    05:00 +11°C° 0 mm 4 m/S 752 mmHg 83%
    06:00 +12°C° 0 mm 4 m/S 752 mmHg 82%
    07:00 +12°C° 0 mm 4 m/S 752 mmHg 82%
    08:00 +12°C° 0 mm 4 m/S 753 mmHg 82%
    09:00 +13°C° 0,1 mm 4 m/S 753 mmHg 80%
    10:00 +13°C° 0,1 mm 5 m/S 753 mmHg 79%
    11:00 +14°C° 0,1 mm 5 m/S 753 mmHg 77%
    12:00 +14°C° 0,2 mm 5 m/S 754 mmHg 77%
    13:00 +15°C° 0,2 mm 5 m/S 754 mmHg 77%
    14:00 +15°C° 0,2 mm 5 m/S 754 mmHg 76%
    15:00 +15°C° 0,1 mm 5 m/S 754 mmHg 76%
    16:00 +14°C° 0,1 mm 5 m/S 754 mmHg 76%
    17:00 +14°C° 0,1 mm 4 m/S 754 mmHg 76%
    18:00 +14°C° 0 mm 4 m/S 754 mmHg 76%
    19:00 +13°C° 0 mm 4 m/S 755 mmHg 76%
    20:00 +12°C° 0 mm 4 m/S 755 mmHg 76%
    21:00 +12°C° 0 mm 4 m/S 755 mmHg 76%
    22:00 +12°C° 0 mm 4 m/S 755 mmHg 76%
    23:00 +11°C° 0 mm 4 m/S 755 mmHg 75%

    25 September, Montag

    Zeit Temperatur Niederschläge Wind Luftdruck Luftfeuchtigkeit
    00:00 +11°C° 0 mm 4 m/S 755 mmHg 76%
    01:00 +11°C° 0 mm 4 m/S 756 mmHg 77%
    02:00 +10°C° 0 mm 4 m/S 756 mmHg 77%
    03:00 +10°C° 0 mm 4 m/S 756 mmHg 78%
    04:00 +10°C° 0 mm 4 m/S 756 mmHg 78%
    05:00 +10°C° 0 mm 4 m/S 756 mmHg 78%
    06:00 +11°C° 0 mm 4 m/S 756 mmHg 77%
    07:00 +11°C° 0 mm 4 m/S 756 mmHg 76%
    08:00 +10°C° 0 mm 5 m/S 757 mmHg 75%
    09:00 +13°C° 0 mm 5 m/S 757 mmHg 71%
    10:00 +14°C° 0 mm 5 m/S 757 mmHg 67%
    11:00 +16°C° 0 mm 5 m/S 757 mmHg 63%
    12:00 +16°C° 0 mm 5 m/S 757 mmHg 62%
    13:00 +17°C° 0 mm 5 m/S 757 mmHg 60%
    14:00 +19°C° 0 mm 5 m/S 757 mmHg 59%
    15:00 +17°C° 0 mm 5 m/S 757 mmHg 62%
    16:00 +17°C° 0 mm 4 m/S 757 mmHg 65%
    17:00 +15°C° 0 mm 4 m/S 757 mmHg 68%
    18:00 +14°C° 0 mm 4 m/S 757 mmHg 71%
    19:00 +13°C° 0 mm 4 m/S 758 mmHg 73%
    20:00 +13°C° 0 mm 4 m/S 758 mmHg 76%
    21:00 +13°C° 0 mm 4 m/S 758 mmHg 75%
    22:00 +13°C° 0 mm 4 m/S 758 mmHg 75%
    23:00 +13°C° 0 mm 4 m/S 758 mmHg 74%

    26 September, Dienstag

    Zeit Temperatur Niederschläge Wind Luftdruck Luftfeuchtigkeit
    00:00 +13°C° 0 mm 4 m/S 758 mmHg 74%
    01:00 +13°C° 0 mm 4 m/S 758 mmHg 73%
    02:00 +13°C° 0 mm 4 m/S 758 mmHg 72%
    03:00 +12°C° 0 mm 4 m/S 758 mmHg 74%
    04:00 +12°C° 0 mm 4 m/S 758 mmHg 76%
    05:00 +11°C° 0 mm 4 m/S 758 mmHg 78%
    06:00 +11°C° 0 mm 4 m/S 758 mmHg 77%
    07:00 +11°C° 0 mm 4 m/S 758 mmHg 76%
    08:00 +10°C° 0 mm 5 m/S 759 mmHg 74%
    09:00 +13°C° 0 mm 5 m/S 759 mmHg 68%
    10:00 +14°C° 0 mm 5 m/S 759 mmHg 62%
    11:00 +15°C° 0 mm 5 m/S 759 mmHg 57%
    12:00 +16°C° 0 mm 5 m/S 759 mmHg 54%
    13:00 +17°C° 0 mm 5 m/S 759 mmHg 51%
    14:00 +17°C° 0 mm 5 m/S 759 mmHg 49%
    15:00 +18°C° 0 mm 4 m/S 758 mmHg 53%
    16:00 +17°C° 0 mm 4 m/S 758 mmHg 57%
    17:00 +16°C° 0 mm 3 m/S 758 mmHg 61%
    18:00 +14°C° 0 mm 3 m/S 758 mmHg 64%
    19:00 +13°C° 0 mm 3 m/S 759 mmHg 67%
    20:00 +11°C° 0 mm 3 m/S 759 mmHg 70%
    21:00 +11°C° 0 mm 3 m/S 759 mmHg 71%
    22:00 +10°C° 0 mm 3 m/S 759 mmHg 73%
    23:00 +10°C° 0 mm 3 m/S 759 mmHg 75%

    27 September, Mittwoch

    Zeit Temperatur Niederschläge Wind Luftdruck Luftfeuchtigkeit
    00:00 +9°C° 0 mm 3 m/S 759 mmHg 77%
    01:00 +9°C° 0 mm 3 m/S 759 mmHg 80%
    02:00 +8°C° 0 mm 3 m/S 759 mmHg 82%
    03:00 +8°C° 0 mm 3 m/S 759 mmHg 84%
    04:00 +8°C° 0 mm 3 m/S 759 mmHg 86%
    05:00 +8°C° 0 mm 3 m/S 759 mmHg 87%
    06:00 +9°C° 0 mm 3 m/S 760 mmHg 85%
    07:00 +9°C° 0 mm 3 m/S 760 mmHg 83%
    08:00 +10°C° 0 mm 3 m/S 760 mmHg 81%
    09:00 +12°C° 0 mm 3 m/S 760 mmHg 75%
    10:00 +14°C° 0 mm 4 m/S 760 mmHg 70%
    11:00 +15°C° 0 mm 4 m/S 760 mmHg 64%
    12:00 +17°C° 0 mm 4 m/S 760 mmHg 62%
    13:00 +18°C° 0 mm 4 m/S 760 mmHg 60%
    14:00 +19°C° 0 mm 4 m/S 760 mmHg 57%
    15:00 +18°C° 0 mm 3 m/S 760 mmHg 62%
    16:00 +17°C° 0 mm 3 m/S 759 mmHg 66%
    17:00 +17°C° 0 mm 2 m/S 759 mmHg 70%
    18:00 +15°C° 0 mm 2 m/S 759 mmHg 75%
    19:00 +14°C° 0 mm 2 m/S 759 mmHg 80%
    20:00 +13°C° 0 mm 2 m/S 760 mmHg 84%
    21:00 +12°C° 0 mm 2 m/S 760 mmHg 86%
    22:00 +12°C° 0 mm 2 m/S 760 mmHg 88%
    23:00 +10°C° 0 mm 2 m/S 760 mmHg 90%
    Mehr zeigen